Back to catalog

COSMOS 970 DEB

AliveLEO
NORAD 10576·DEBRIS·🇷🇺 Russia

Launched Dec 21, 1977 from Baikonur Cosmodrome

Loading…

Next Passes (next 24 hours)

TLE

FreshSource: Space-Track

Epoch: Sep 14, 2026, 11:24 UTC

1 10576U 77121T   26257.47537025  .00000043  00000-0  13775-3 0  9995
2 10576  65.8399 330.5971 0131615 142.2133 232.2665 13.66887559427098

Track COSMOS 970 DEB in real time with AllMySat

Download on the App Store